Weather History for Brest, Belarus

Change the Weather History Date:

Tuesday, February 12, 2013

  Actual Average Record
Temperature  
Mean Temperature 22 °F -  
Max Temperature 32 °F 36 °F - ()
Min Temperature 14 °F 24 °F - ()
Degree Days  
Heating Degree Days 43    
Moisture  
Dew Point 20 °F    
Average Humidity 91    
Maximum Humidity 100    
Minimum Humidity 70    
Precipitation  
Precipitation 0.00 in 0.04 in - ()
Sea Level Pressure  
Sea Level Pressure 30.05 in    
Wind  
Wind Speed 2 mph ()    
Max Wind Speed 9 mph    
Max Gust Speed -    
Visibility 2.3 miles    
Events Fog    
T = Trace of Precipitation, MM = Missing Value Source: Averaged Metar Reports

Daily Weather History Graph

Daily Weather History Graph

Search for Another Location

Airport:

Trip Planner

Search our weather history database for the weather conditions in past years. The results will help you decide how hot, cold, wet, or windy it might be!

Date:

Astronomy

Feb. 12, 2013 Rise Set
Actual Time 8:45 AM FET 6:32 PM FET
Civil Twilight 8:10 AM FET 7:08 PM FET
Nautical Twilight 7:30 AM FET 7:47 PM FET
Astronomical Twilight 6:51 AM FET 8:27 PM FET
Moon 9:08 AM FET (2/12) 9:41 PM FET (2/12)
Length of Visible Light 10h 58m
Length of Day
9h 47m
Waxing Crescent, 5% of the Moon is Illuminated
Feb 12
Waxing Crescent
Feb 17
First Quarter
Feb 25
Full
Mar 5
Last Quarter
Mar 11
New

Hourly Weather History & Observations

Time (FET) Temp. Windchill Dew Point Humidity Pressure Visibility Wind Dir Wind Speed Gust Speed Precip Events Conditions
12:00 AM 29 °F - 29 °F 98% 30.01 in 2 mi East 2.2 mph - -   Mist
3:00 AM 30 °F - 29 °F 94% 30.02 in 2 mi Calm Calm - -   Mist
5:00 AM 24.8 °F - 24.8 °F 100% 29.98 in 0.2 mi Calm Calm - N/A Fog Light Freezing Fog
6:00 AM 24 °F - 23 °F 93% 30.05 in 0 mi SW 2.2 mph - - Fog Heavy Fog
6:00 AM 23.0 °F - 23.0 °F 100% 30.01 in 0.1 mi Calm Calm - N/A Fog Light Freezing Fog
7:00 AM 21.2 °F - 21.2 °F 100% 30.01 in 0.1 mi Calm Calm - N/A Fog Light Freezing Fog
8:00 AM 17.6 °F - 17.6 °F 100% 30.01 in 0.1 mi Calm Calm - N/A Fog Light Freezing Fog
8:30 AM 17.6 °F - 17.6 °F 100% 30.01 in 0.1 mi Calm Calm - N/A Fog Light Freezing Fog
9:00 AM 19 °F - 19 °F 99% 30.07 in 0 mi East 2.2 mph - - Fog Heavy Fog
9:00 AM 15.8 °F - 15.8 °F 100% 30.01 in 0.1 mi Calm Calm - N/A Fog Light Freezing Fog
9:30 AM 15.8 °F - 15.8 °F 100% 30.01 in 0.1 mi Calm Calm - N/A Fog Light Freezing Fog
9:45 AM 15.8 °F - 15.8 °F 100% 30.01 in 1.1 mi Calm Calm - N/A   Mist
10:00 AM 14.0 °F - 12.2 °F 93% 30.01 in - NE 2.2 mph - N/A   Mist
10:30 AM 14.0 °F - 12.2 °F 93% 30.04 in - Calm Calm - N/A   Mist
11:00 AM 15.8 °F - 14.0 °F 93% 30.04 in 3.1 mi Calm Calm - N/A   Mist
11:30 AM 15.8 °F - 14.0 °F 93% 30.04 in 3.1 mi Calm Calm - N/A   Mist
12:00 PM 27 °F - 26 °F 94% 30.10 in 3 mi ESE 2.2 mph - -   Mist
12:00 PM 17.6 °F - 14.0 °F 86% 30.06 in 3.7 mi Calm Calm - N/A   Unknown
12:30 PM 17.6 °F 10.8 °F 14.0 °F 86% 30.06 in 3.7 mi ENE 4.5 mph - N/A   Unknown
1:00 PM 21.2 °F - 19.4 °F 93% 30.06 in 4.3 mi East 2.2 mph - N/A   Unknown
1:30 PM 21.2 °F - 19.4 °F 93% 30.06 in 3.7 mi ENE 2.2 mph - N/A   Unknown
2:00 PM 23.0 °F 17.1 °F 19.4 °F 86% 30.06 in 3.7 mi ENE 4.5 mph - N/A   Unknown
2:30 PM 23.0 °F 17.1 °F 19.4 °F 86% 30.06 in 3.7 mi ENE 4.5 mph - N/A   Unknown
3:00 PM 30 °F - 24 °F 70% 30.11 in 4 mi East 4.5 mph - -   Mist
3:00 PM 26.6 °F 21.3 °F 23.0 °F 86% 30.06 in 3.7 mi East 4.5 mph - N/A   Unknown
3:30 PM 26.6 °F 19.2 °F 23.0 °F 86% 30.06 in 3.7 mi East 6.7 mph - N/A   Unknown
4:30 PM 28.4 °F 21.4 °F 23.0 °F 80% 30.06 in 4.3 mi ENE 6.7 mph - N/A   Unknown
6:00 PM 30 °F - 24 °F 70% 30.13 in 4 mi East 4.5 mph - -   Mist
9:00 PM 28 °F - 24 °F 77% 30.14 in 5 mi ESE 8.9 mph - -   Mist